Date String (YYYY-MM-DD hh:mm:ss) UTC,Instrument flags,absolute air pressure of the measurement (hPa),sample flow rate (lpm),inlet stack bypass flow (lpm),air temperature of the measurement (°C),ambient temperature measured by the external sensor (°C),aerosol sample conditioner tube jacket temperature (°C),OPC LED temperature (°C),internal box temperature (°C),relative humidity of the measurement (%),span deviation,mass concentration of particles derived from Lorenz-Mie calculation of OPC scattering (μg/m³),mass concentration of particles derived from Lorenz-Mie calculation of OPC scattering (μg/m³),mass concentration of particles derived from Lorenz-Mie calculation of OPC scattering (μg/m³)
DateTimeUTC,F1_M11,P_M11,Q1_M11,Q2_M11,T1_M11,T2_M11,T3_M11,T4_M11,T5_M11,U1_M11,ZSPAN_M11,X0_M11,X2_M11,X1_M11
2024-02-16 15:00:00,SystemResetWarning,0830.1,5.00,000.00,018.6,018.8,000.0,027.2,020.8,18.3,0001.3,0010.99,0008.38,0008.29
2024-02-16 15:01:00,SystemResetWarning,0830.1,4.99,000.00,018.7,018.9,000.0,027.1,020.8,18.2,0001.0,0011.01,0008.39,0008.30
2024-02-16 15:02:00,SystemResetWarning,0830.1,4.99,000.00,018.7,018.8,000.0,027.0,020.5,18.2,0000.9,0011.01,0008.37,0008.28
2024-02-16 15:03:00,SystemResetWarning,0830.0,5.01,000.00,018.6,018.6,000.0,027.0,020.3,18.3,0001.1,0011.02,0008.37,0008.26
2024-02-16 15:04:00,SystemResetWarning,0830.0,5.01,000.00,018.6,018.4,000.0,027.0,020.2,18.3,0001.1,0011.07,0008.40,0008.28
2024-02-16 15:05:00,SystemResetWarning,0830.0,4.99,000.00,018.5,018.3,000.0,026.9,020.1,18.4,0001.4,0011.04,0008.39,0008.27
2024-02-16 15:06:00,SystemResetWarning,0830.1,4.99,000.00,018.5,018.1,000.0,026.9,020.0,18.5,0001.4,0011.02,0008.38,0008.26
2024-02-16 15:07:00,SystemResetWarning,0830.1,5.00,000.00,018.4,018.0,000.0,027.0,020.0,18.6,0001.5,0011.03,0008.36,0008.22
2024-02-16 15:08:00,SystemResetWarning,0830.2,5.00,000.00,018.4,017.9,000.0,027.0,020.0,18.6,0001.6,0010.99,0008.32,0008.18
2024-02-16 15:09:00,SystemResetWarning,0830.1,5.01,000.00,018.4,017.8,000.0,027.0,020.0,18.6,0001.6,0010.98,0008.32,0008.16
2024-02-16 15:10:00,SystemResetWarning,0830.1,5.00,000.00,018.3,017.7,000.0,027.0,020.0,18.6,0001.8,0010.99,0008.33,0008.17
2024-02-16 15:11:00,SystemResetWarning,0830.1,4.99,000.00,018.3,017.6,000.0,027.1,020.0,18.7,0001.8,0011.02,0008.36,0008.19
2024-02-16 15:12:00,SystemResetWarning,0830.1,4.99,000.00,018.3,017.6,000.0,027.1,020.0,18.7,0002.1,0011.11,0008.42,0008.25
2024-02-16 15:13:00,SystemResetWarning,0830.2,4.99,000.00,018.3,017.5,000.0,027.1,020.0,18.7,0002.1,0011.19,0008.50,0008.32
2024-02-16 15:14:00,SystemResetWarning,0830.2,5.00,000.00,018.3,017.5,000.0,027.0,020.0,18.8,0001.8,0011.26,0008.55,0008.38
2024-02-16 15:15:00,SystemResetWarning,0830.2,5.00,000.00,018.3,017.4,000.0,027.1,020.0,18.8,0001.7,0011.28,0008.59,0008.42
2024-02-16 15:16:00,SystemResetWarning,0830.2,5.00,000.00,018.3,017.4,000.0,027.0,020.0,18.7,0001.7,0011.31,0008.61,0008.44
2024-02-16 15:17:00,SystemResetWarning,0830.2,5.00,000.00,018.3,017.4,000.0,027.1,020.0,18.7,0001.8,0011.32,0008.62,0008.44
2024-02-16 15:18:00,SystemResetWarning,0830.2,5.01,000.00,018.3,017.4,000.0,027.1,020.1,18.8,0001.8,0011.34,0008.65,0008.47
2024-02-16 15:19:00,SystemResetWarning,0830.2,5.00,000.00,018.4,018.1,000.0,027.1,020.4,18.6,0001.8,0011.47,0008.72,0008.52
2024-02-16 15:20:00,SystemResetWarning,0830.2,5.00,000.00,018.6,018.9,000.0,027.2,020.9,18.4,0001.6,0011.59,0008.79,0008.56
2024-02-16 15:21:00,SystemResetWarning,0830.2,4.99,000.00,018.7,018.9,000.0,027.1,020.7,18.2,0001.3,0012.32,0008.79,0008.56
2024-02-16 15:22:00,SystemResetWarning,0830.2,4.99,000.00,018.7,018.7,000.0,027.0,020.5,18.3,0001.3,0012.62,0008.86,0008.61
2024-02-16 15:23:00,SystemResetWarning,0830.3,5.01,000.00,018.6,018.5,000.0,027.0,020.2,18.3,0001.3,0012.70,0008.90,0008.65
2024-02-16 15:24:00,SystemResetWarning,0830.2,5.01,000.00,018.5,018.3,000.0,027.0,020.1,18.4,0001.4,0012.69,0008.90,0008.65
2024-02-16 15:25:00,SystemResetWarning,0830.3,5.00,000.00,018.5,018.2,000.0,026.9,020.0,18.5,0001.7,0012.70,0008.91,0008.65
2024-02-16 15:26:00,SystemResetWarning,0830.3,5.01,000.00,018.4,018.0,000.0,027.0,020.0,18.5,0001.9,0012.71,0008.91,0008.66
2024-02-16 15:27:00,SystemResetWarning,0830.2,5.00,000.00,018.4,017.9,000.0,027.0,020.0,18.6,0001.8,0012.70,0008.88,0008.61
2024-02-16 15:28:00,SystemResetWarning,0830.2,4.99,000.00,018.4,017.8,000.0,027.0,020.0,18.6,0001.7,0012.72,0008.88,0008.61
2024-02-16 15:29:00,SystemResetWarning,0830.2,4.99,000.00,018.4,017.7,000.0,027.1,020.0,18.6,0001.6,0012.72,0008.88,0008.60
2024-02-16 15:30:00,SystemResetWarning,0830.3,5.02,000.00,018.3,017.6,000.0,027.1,020.0,18.7,0001.8,0012.64,0008.87,0008.63
2024-02-16 15:31:00,SystemResetWarning,0830.3,5.00,000.00,018.3,017.6,000.0,027.1,020.0,18.6,0002.0,0012.55,0008.84,0008.62
2024-02-16 15:32:00,SystemResetWarning,0830.3,4.99,000.00,018.3,017.5,000.0,027.1,020.0,18.7,0002.3,0011.84,0008.81,0008.58
2024-02-16 15:33:00,SystemResetWarning,0830.3,5.00,000.00,018.3,017.5,000.0,027.1,020.0,18.7,0002.3,0011.71,0008.77,0008.52
2024-02-16 15:34:00,SystemResetWarning,0830.2,5.01,000.00,018.3,017.5,000.0,027.1,020.0,18.7,0002.2,0011.63,0008.70,0008.44
2024-02-16 15:35:00,SystemResetWarning,0830.2,5.00,000.00,018.3,017.4,000.0,027.1,020.0,18.8,0002.4,0011.65,0008.69,0008.42
2024-02-16 15:36:00,SystemResetWarning,0830.3,4.99,000.00,018.3,017.4,000.0,027.1,020.0,18.8,0002.2,0011.60,0008.64,0008.37
2024-02-16 15:37:00,SystemResetWarning,0830.2,4.99,000.00,018.3,017.4,000.0,027.1,020.0,18.8,0002.3,0011.51,0008.58,0008.30
2024-02-16 15:38:00,SystemResetWarning,0830.3,5.01,000.00,018.4,018.1,000.0,027.1,020.4,18.7,0002.3,0011.50,0008.58,0008.30
2024-02-16 15:39:00,SystemResetWarning,0830.3,5.01,000.00,018.6,018.9,000.0,027.2,020.9,18.5,0002.3,0011.52,0008.58,0008.29
2024-02-16 15:40:00,SystemResetWarning,0830.2,4.98,000.00,018.7,019.0,000.0,027.1,020.8,18.4,0002.4,0011.41,0008.50,0008.21
2024-02-16 15:41:00,SystemResetWarning,0830.2,5.01,000.00,018.7,018.8,000.0,027.1,020.5,18.4,0002.3,0011.37,0008.47,0008.16
2024-02-16 15:42:00,SystemResetWarning,0830.2,5.01,000.00,018.6,018.6,000.0,027.0,020.3,18.5,0002.0,0011.38,0008.45,0008.14
2024-02-16 15:43:00,SystemResetWarning,0830.2,5.00,000.00,018.6,018.4,000.0,027.0,020.1,18.5,0002.0,0011.44,0008.49,0008.16
2024-02-16 15:44:00,SystemResetWarning,0830.3,4.99,000.00,018.5,018.2,000.0,026.9,020.0,18.5,0002.1,0011.40,0008.49,0008.18
2024-02-16 15:45:00,SystemResetWarning,0830.2,4.99,000.00,018.5,018.1,000.0,026.9,020.0,18.6,0002.2,0011.40,0008.52,0008.23
2024-02-16 15:46:00,SystemResetWarning,0830.1,5.00,000.00,018.4,018.0,000.0,027.0,020.0,18.6,0001.9,0011.41,0008.55,0008.27
2024-02-16 15:47:00,SystemResetWarning,0830.2,5.01,000.00,018.4,017.9,000.0,027.0,020.0,18.6,0001.7,0011.47,0008.61,0008.32
2024-02-16 15:48:00,SystemResetWarning,0830.2,5.01,000.00,018.4,017.8,000.0,027.0,020.0,18.7,0001.6,0011.52,0008.64,0008.35
2024-02-16 15:49:00,SystemResetWarning,0830.2,5.00,000.00,018.4,017.8,000.0,027.0,020.0,18.7,0001.6,0011.57,0008.64,0008.35
2024-02-16 15:50:00,SystemResetWarning,0830.1,5.00,000.00,018.4,017.7,000.0,027.0,020.0,18.7,0001.7,0011.59,0008.62,0008.35
2024-02-16 15:51:00,SystemResetWarning,0830.2,4.99,000.00,018.3,017.7,000.0,027.0,020.0,18.7,0001.7,0011.80,0008.72,0008.43
2024-02-16 15:52:00,SystemResetWarning,0830.2,5.00,000.00,018.3,017.6,000.0,027.0,020.0,18.7,0001.9,0011.77,0008.70,0008.42
2024-02-16 15:53:00,SystemResetWarning,0830.1,4.99,000.00,018.3,017.6,000.0,027.0,020.0,18.7,0001.8,0011.77,0008.68,0008.41
2024-02-16 15:54:00,SystemResetWarning,0830.2,5.00,000.00,018.3,017.6,000.0,027.0,020.0,18.8,0001.7,0011.68,0008.63,0008.36
2024-02-16 15:55:00,SystemResetWarning,0830.2,5.00,000.00,018.3,017.5,000.0,027.0,020.0,18.7,0001.5,0011.51,0008.54,0008.29
2024-02-16 15:56:00,SystemResetWarning,0830.2,5.01,000.00,018.3,017.5,000.0,027.0,020.0,18.8,0001.4,0011.39,0008.46,0008.22
2024-02-16 15:57:00,SystemResetWarning,0830.2,5.01,000.00,018.3,017.5,000.0,027.0,020.0,18.8,0001.6,0011.27,0008.37,0008.14
2024-02-16 15:58:00,SystemResetWarning,0830.2,5.00,000.00,018.3,017.5,000.0,027.0,020.0,18.8,0001.6,0011.15,0008.28,0008.05
2024-02-16 15:59:00,SystemResetWarning,0830.1,5.01,000.00,018.3,017.5,000.0,027.0,020.0,18.8,0001.8,0011.02,0008.18,0007.95
